Vertical_Velocity
1 1 1 -2 8 8 4 -0 -3 -2 -1 -1 -2 -0 -3 -2 1 -0 5 2 -1 -2 -1 -1 -1 -1 -1 -0 0 -1 -2 -3 -3 -6 -3 -3 -1 -3 -1 -1 0 2 2
1 -1 -1 -1 0 3 9 1 -1 -0 2 2 1 -0 -2 -1 1 0 0 1 -1 0 -2 -2 -1 -2 -1 -2 -3 -2 -1 1 -1 -2 0 -4 -1 -2 1 -2 -2 -3 -2
-3 -2 -2 -0 -1 -1 2 8 -1 -1 -1 -1 1 6 6 5 -1 -1 -0 2 -0 -1 -0 -2 -4 -2 -4 -1 -2 -2 -0 -1 3 -0 -0 -2 -1 -8 -4 -0 1 -2 -3
7 1 -1 -1 -1 -2 -1 4 3 -0 0 -1 -0 -3 -4 -3 1 2 -0 -1 1 0 0 1 1 -0 -0 -1 -0 -2 -2 -1 -3 -2 0 2 3 -1 -12 2 -0 1 -0
-1 -0 -1 -2 -1 0 -0 -2 0 6 2 1 0 -0 2 3 2 -2 2 -4 -3 0 0 0 -1 -3 -1 -1 -0 0 1 2 2 2 1 1 -1 1 3 -23 -5 1 -2
2 -1 -1 -1 0 0 2 2 -2 1 8 5 5 -1 4 1 -7 -2 -0 1 2 0 -0 -1 -0 -1 -1 -1 -1 -1 -0 -1 -0 0 1 1 1 -1 7 6 -6 -4 -8
-3 -1 -0 -1 -0 1 -0 -0 4 3 2 1 -0 4 2 4 -1 4 3 1 -3 1 1 -0 -0 -1 -1 -1 -0 0 0 0 0 -0 -0 1 4 4 2 5 -3 -0 -11
1 -1 -0 -1 -1 -1 -1 1 1 1 1 1 2 3 3 0 3 1 -1 -2 1 -0 -0 -0 0 0 1 -1 -1 -1 -2 -3 -3 -2 -0 -1 0 -2 -1 3 6 -14 -5
0 -1 0 1 -0 1 -1 -0 2 2 2 2 3 3 3 4 1 2 1 0 -0 -2 -2 -2 -1 0 1 1 -0 -0 -1 0 -0 0 0 -0 -1 1 1 1 5 12 -2
2 1 1 0 1 1 0 1 2 1 1 1 4 4 5 4 1 1 3 2 0 1 0 0 -0 -1 -2 -3 -3 -2 -1 -1 -0 -0 -1 -0 -0 -2 -0 -0 1 1 5
1 1 1 3 2 1 1 1 2 1 0 3 1 3 -1 2 -4 5 -2 3 1 -0 1 0 -1 -2 -3 -2 0 1 1 0 -0 1 -1 0 0 -0 -1 -0 -1 -2 -2
-1 -0 -0 -1 1 1 1 4 3 2 1 -0 -0 0 1 -2 0 2 2 -0 1 -0 -1 -3 -3 -1 -0 1 -1 1 -1 -2 -3 -2 -3 -1 -1 1 1 0 -1 3 3
1 0 1 1 -0 -1 -0 -1 -0 0 -0 -0 0 0 1 1 -1 -1 -0 0 -1 -0 0 -0 1 1 0 1 1 -3 -4 -4 -1 -2 -1 0 1 1 2 2 0 -0 -1
-1 -0 2 1 -0 1 1 1 -0 0 0 2 2 1 1 1 1 -0 -3 -4 -2 -0 1 0 0 1 2 -1 -4 -5 -4 -2 -2 -1 -1 -2 -1 -2 -4 -3 -6 -4 -1
1 0 1 -0 1 1 -1 1 2 1 2 1 1 0 0 -0 1 1 2 1 -1 0 -1 -1 2 2 -2 -6 -7 -2 -2 -1 1 3 1 1 3 1 0 -0 -3 -2 -3
-0 -0 2 0 -0 -1 0 0 -0 0 1 0 -1 -0 -1 -1 -0 -0 1 1 -1 -2 1 1 -1 -4 -5 -4 -2 -1 -3 -0 -2 -7 -4 2 -2 1 2 0 2 8 -0
-1 2 1 1 1 -1 -0 1 1 1 1 0 0 0 1 -0 0 -0 -2 0 -0 -0 -2 -5 -5 -2 0 2 1 -0 1 -3 -3 -1 0 -4 -3 -4 -2 0 4 6 8
-3 1 -2 0 1 3 4 -0 1 2 2 2 1 0 0 -0 -2 1 -1 -0 -2 -2 -3 -4 -2 2 2 0 2 1 -0 1 0 -1 -2 1 -3 -2 -3 -6 -4 -1 -2
1 0 1 -2 -2 -2 1 0 0 1 -0 1 0 0 -0 -1 -0 -0 -2 -2 -1 -3 -2 1 1 -2 -2 -3 -5 -5 -5 -3 0 -0 -3 1 2 3 3 -6 -6 -2 -5
-0 -1 -2 -0 3 1 3 1 -2 -1 -0 -1 -0 0 1 -1 -0 -1 -1 -2 -3 2 -1 -1 -2 -2 -4 -2 0 3 -3 -1 -8 0 -1 -5 -5 4 7 3 -0 -5 -6
1 3 4 -0 2 -1 2 -1 0 2 -0 1 0 0 -1 -1 -1 -2 -4 -1 -1 -1 -2 -4 -2 -3 -2 -3 -1 -4 -4 -4 -0 -2 -1 -2 -1 -4 2 7 -2 1 0
6 8 -2 1 1 5 4 1 1 1 1 -1 -0 -2 1 -2 -2 -0 0 -2 -1 -2 -2 -1 -1 1 1 1 -2 -3 0 -0 -6 -3 -1 -3 3 1 4 -1 2 -1 6
-1 -0 -3 0 3 3 6 -1 0 -0 1 -2 2 -1 -2 -1 -3 -3 -1 -0 -0 -1 -1 -3 -3 -2 1 -1 1 1 0 -1 -6 -7 -2 -2 -2 -2 -8 2 -2 2 6
-2 -1 2 4 -1 3 -0 0 -2 -2 2 -2 -2 -1 -0 1 0 1 2 -1 1 1 -1 -0 -1 -1 -7 -5 -5 -5 -5 -3 -8 -5 -8 -7 -3 5 -0 -5 0 -1 -2
2 8 4 1 -1 1 -3 4 -3 -2 -4 -2 -1 -3 -4 -2 -2 -3 -2 -2 -1 -2 -5 -3 -4 -5 -3 0 1 1 -1 -0 -1 -6 -2 -4 -4 -12 -5 -6 -2 -2 -1
2 1 3 -2 1 3 -6 -3 2 -0 -1 -4 -3 -2 1 1 -0 -0 -3 2 -2 -3 1 1 -0 -2 4 -2 -7 -4 1 -3 0 2 -3 -6 -2 2 -0 -1 1 0 2
Height
1509 1513 1517 1521 1526 1531 1533 1535 1538 1542 1545 1548 1551 1554 1556 1559 1562 1565 1566 1568 1569 1570 1571 1572 1572 1572 1572 1572 1572 1571 1570 1569 1568 1566 1565 1563 1562 1561 1561 1561 1560 1559 1558
1507 1511 1514 1518 1522 1527 1532 1534 1537 1540 1543 1546 1550 1553 1556 1559 1561 1563 1565 1566 1567 1569 1570 1570 1570 1570 1570 1570 1569 1569 1568 1568 1566 1565 1563 1561 1561 1559 1560 1559 1558 1558 1556
1505 1508 1511 1515 1520 1524 1528 1532 1535 1538 1542 1546 1549 1553 1555 1557 1559 1561 1563 1565 1567 1568 1569 1569 1569 1569 1569 1568 1568 1567 1567 1566 1566 1564 1565 1563 1561 1558 1556 1556 1555 1554 1553
1503 1505 1508 1510 1514 1518 1523 1529 1533 1536 1540 1543 1547 1550 1552 1554 1557 1560 1562 1563 1565 1567 1568 1568 1568 1568 1568 1566 1565 1565 1564 1564 1563 1563 1564 1563 1562 1559 1553 1551 1552 1552 1549
1500 1501 1503 1505 1509 1514 1518 1522 1529 1533 1537 1540 1544 1547 1551 1554 1556 1558 1560 1562 1564 1566 1566 1567 1567 1566 1566 1565 1564 1563 1563 1562 1561 1561 1560 1560 1559 1559 1557 1547 1542 1543 1543
1496 1497 1500 1503 1505 1509 1514 1519 1525 1529 1533 1537 1541 1545 1548 1549 1553 1556 1558 1560 1562 1563 1564 1564 1564 1564 1563 1562 1562 1561 1561 1560 1559 1558 1557 1556 1555 1553 1552 1547 1542 1539 1535
1492 1495 1497 1499 1502 1505 1509 1516 1521 1524 1528 1533 1537 1540 1544 1548 1551 1553 1555 1557 1558 1560 1561 1562 1562 1561 1561 1560 1560 1559 1558 1558 1556 1555 1554 1553 1552 1550 1548 1544 1538 1533 1531
1490 1493 1495 1497 1499 1502 1506 1512 1516 1521 1525 1530 1533 1537 1541 1545 1547 1550 1551 1554 1555 1557 1559 1559 1559 1559 1559 1558 1557 1556 1555 1554 1553 1552 1551 1549 1548 1547 1546 1543 1538 1528 1523
1488 1491 1494 1496 1499 1501 1505 1510 1514 1519 1523 1527 1531 1535 1538 1541 1543 1546 1549 1551 1552 1554 1555 1556 1557 1557 1557 1556 1555 1555 1554 1552 1551 1549 1547 1545 1544 1543 1541 1539 1537 1532 1518
1487 1490 1493 1495 1498 1502 1505 1509 1513 1517 1522 1525 1529 1532 1535 1538 1541 1543 1546 1548 1550 1552 1553 1554 1554 1554 1554 1555 1553 1551 1549 1548 1546 1545 1543 1541 1539 1537 1535 1533 1530 1528 1522
1487 1489 1492 1495 1498 1501 1505 1508 1512 1515 1519 1523 1526 1529 1532 1536 1539 1542 1544 1546 1548 1550 1551 1552 1552 1551 1550 1549 1548 1547 1545 1543 1542 1540 1538 1537 1534 1531 1528 1526 1523 1519 1516
1485 1489 1491 1494 1498 1501 1504 1508 1511 1514 1517 1521 1524 1528 1531 1535 1538 1541 1543 1545 1546 1547 1548 1549 1549 1547 1546 1545 1544 1544 1542 1540 1538 1536 1534 1532 1529 1526 1524 1521 1517 1514 1511
1482 1486 1490 1493 1497 1501 1504 1507 1511 1514 1517 1520 1524 1527 1531 1534 1537 1540 1542 1544 1545 1546 1545 1545 1546 1545 1543 1542 1541 1540 1539 1537 1535 1533 1530 1528 1524 1521 1517 1514 1510 1506 1501
1480 1483 1488 1491 1496 1500 1503 1506 1510 1514 1518 1521 1525 1528 1531 1534 1536 1537 1539 1541 1543 1544 1544 1543 1543 1542 1540 1539 1537 1537 1535 1534 1531 1529 1526 1524 1520 1516 1513 1508 1504 1501 1496
1476 1480 1484 1489 1494 1497 1502 1505 1510 1514 1518 1521 1524 1527 1530 1533 1535 1537 1537 1538 1540 1541 1542 1541 1540 1539 1536 1535 1534 1533 1531 1528 1526 1524 1521 1518 1515 1512 1508 1505 1501 1497 1492
1471 1477 1481 1485 1490 1494 1499 1503 1508 1513 1516 1520 1523 1526 1529 1531 1534 1536 1537 1537 1537 1538 1539 1538 1537 1536 1534 1532 1530 1528 1527 1525 1521 1518 1516 1513 1509 1506 1502 1498 1495 1493 1486
1467 1473 1478 1483 1487 1492 1497 1502 1507 1512 1515 1518 1521 1524 1527 1529 1532 1533 1534 1535 1535 1535 1535 1534 1535 1533 1531 1529 1527 1524 1522 1519 1516 1513 1509 1506 1504 1501 1495 1491 1487 1483 1480
1463 1469 1475 1482 1487 1492 1496 1501 1507 1511 1515 1517 1520 1523 1525 1528 1530 1531 1532 1532 1532 1532 1531 1531 1531 1530 1528 1526 1523 1521 1518 1515 1511 1508 1504 1499 1495 1494 1490 1484 1479 1475 1471
1459 1467 1472 1478 1485 1491 1496 1500 1506 1511 1515 1518 1520 1522 1524 1527 1528 1529 1529 1530 1529 1529 1529 1528 1526 1524 1523 1521 1519 1515 1512 1508 1504 1501 1498 1495 1490 1488 1484 1478 1472 1467 1463
1456 1462 1469 1478 1484 1490 1494 1498 1505 1510 1514 1517 1520 1522 1523 1525 1526 1526 1527 1527 1527 1526 1525 1524 1522 1521 1518 1517 1514 1511 1506 1501 1496 1492 1489 1487 1485 1480 1476 1473 1467 1458 1456
1452 1459 1469 1476 1482 1489 1494 1498 1504 1507 1511 1515 1518 1520 1521 1523 1524 1524 1524 1524 1524 1522 1520 1519 1517 1515 1513 1510 1508 1504 1500 1496 1490 1486 1481 1479 1477 1473 1468 1464 1461 1455 1450
1453 1462 1469 1476 1484 1490 1493 1497 1503 1508 1511 1514 1517 1518 1519 1520 1521 1521 1520 1520 1518 1517 1515 1513 1511 1509 1507 1505 1503 1500 1496 1491 1486 1480 1476 1471 1467 1465 1460 1455 1452 1448 1443
1453 1462 1470 1476 1484 1489 1495 1499 1503 1507 1511 1513 1515 1516 1518 1518 1518 1518 1518 1517 1515 1513 1510 1508 1506 1503 1502 1500 1497 1492 1488 1484 1479 1474 1468 1464 1460 1455 1452 1449 1445 1442 1436
1455 1464 1472 1477 1483 1490 1495 1499 1503 1506 1509 1512 1514 1515 1515 1516 1515 1515 1513 1511 1510 1507 1505 1504 1500 1498 1495 1495 1491 1487 1482 1480 1474 1468 1460 1457 1454 1450 1447 1441 1437 1433 1428
1460 1467 1473 1479 1485 1491 1495 1498 1502 1505 1507 1510 1511 1511 1512 1512 1511 1511 1510 1508 1507 1504 1501 1499 1497 1494 1490 1489 1486 1483 1476 1474 1469 1463 1458 1451 1448 1445 1440 1435 1431 1426 1424
1463 1470 1476 1481 1485 1491 1495 1500 1501 1503 1505 1507 1508 1509 1508 1506 1505 1504 1504 1504 1503 1501 1500 1496 1492 1490 1485 1482 1481 1479 1472 1468 1466 1458 1453 1449 1446 1441 1436 1430 1426 1422 1420